Regional Weather Roundup
Issued by NWS Bismarck, ND

Home | Current Version | Previous Version | Text Only | Print | Product List | Glossary On
Versions: 1 2 3 4 5 6 7 8 9 10 11 12 13 14 15 16 17 18 19 20 21 22 23 24 25 26 27 28 29 30 31 32 33 34 35 36 37 38 39 40 41 42 43 44 45 46 47 48 49 50
000
ASUS43 KBIS 050902
RWRBIS

NWR BROADCAST TEXT
NATIONAL WEATHER SERVICE BISMARCK ND
400 AM CDT THU MAY 05 2016

NOTE: "FAIR" INDICATES FEW OR NO CLOUDS BELOW 12,000 FEET WITH NO
SIGNIFICANT WEATHER AND/OR OBSTRUCTIONS TO VISIBILITY.


CITY           SKY/WX    TMP DP  RH WIND       PRES   REMARKS
WILLISTON      CLEAR     47  41  80 CALM      29.85F
MINOT          CLEAR     66  41  40 SW16      29.84F
MINOT AFB      NOT AVBL
BISMARCK       CLEAR     59  45  59 SW7       29.92F
DICKINSON      CLEAR     54  41  61 S13       29.91F
GARRISON         N/A     51  42  71 SW5       29.89F
HETTINGER ARPT CLEAR     55  41  59 SE6       29.97F
JAMESTOWN      CLEAR     50  41  71 SW6       29.90F
CARRINGTON     FAIR      61  45  55 SW14G20   29.90S
HAZEN          FAIR      59  43  55 SW13      29.92S
OAKES            N/A    N/A N/A N/A MISG        N/A
STANLEY        FAIR      57  43  58 S8        29.89S
$$

CITY           SKY/WX    TMP DP  RH WIND       PRES   REMARKS
GRAND FORKS    PTCLDY    53  32  44 S10       29.83F
GRAND FORKS AF CLEAR     57  32  38 SW10      29.83F
DEVILS LAKE    CLEAR     59  44  57 SW13      29.86F
FARGO          PTCLDY    51  31  46 S9        29.91S
CAVALIER       FAIR      63  41  45 SW13      29.78F
GRAFTON        FAIR      46  34  61 S8        29.83F
GWINNER        FAIR      50  34  53 SW10      29.94S
LANGDON        FAIR      50  39  66 S10       29.84F
$$

CITY           SKY/WX    TMP DP  RH WIND       PRES   REMARKS
ABERDEEN       CLEAR     42  35  76 SW6       29.97S
MOBRIDGE       CLEAR     51  44  77 SE9       29.94F
BUFFALO          N/A     55  42  61 S5        29.90S
RAPID CITY     CLEAR     47  42  83 SE8       29.98F
GLASGOW        PTCLDY    56  40  55 E13       29.82S
SIDNEY         CLEAR     52  43  71 SW7       29.86F
WOLF POINT     PTCLDY    50  42  74 E3        29.83S
GLENDIVE       CLOUDY    57  43  58 S8        29.91S
MILES CITY     CLOUDY    58  43  57 S10       29.87F
BAKER          CLEAR     52  41  66 SE8       29.92F
$$

CITY           SKY/WX    TMP DP  RH WIND       PRES   REMARKS
BILLINGS       PTCLDY    57  38  48 SW14      29.90F
GREAT FALLS    CLOUDY    54  38  54 CALM      29.89F
$$




USA.gov is the U.S. government's official web portal to all federal, state and local government web resources and services.